[[{"header":{"parameterUnit":"m.s-1","parameterCategory":1,"la1":30.2991,"la2":30.254,"lo1":-89.0895,"lo2":-89.0444,"dy":0.0017,"dx":0.0017,"nx":28,"ny":28,"refTime":"2025-02-02T09:00:00:Z","depth":0,"parameterNumber":2,"parameterNumberName":"U-component_of_WINDS"},"data":[0,0,0,0,0,0,0,0,0,0,0,0,0,0,0,0,0,0,0,0,0,0,0,0,0,0,0,0,0,0,0,0,0,0,0,0,0,0,0,0,0,0,0,0,0,0,0,0,0,0,0,0,0,0,0,0,0,0,-1.7503,-1.7504,0,-1.755,-1.755,-1.7551,-1.754,-1.7539,-1.7538,-1.7537,-1.7585,-1.7587,-1.759,0,0,0,0,0,0,0,0,0,0,0,0,0,-1.7407,-1.7408,-1.7503,-1.7504,-1.7505,-1.755,-1.755,-1.7551,-1.754,-1.7539,-1.7538,-1.7537,-1.7585,-1.7587,-1.759,0,0,0,0,0,0,0,0,0,0,0,0,0,-1.745,-1.7409,-1.7503,-1.7504,-1.7505,-1.755,-1.755,-1.7551,-1.754,-1.7539,-1.7537,-1.7536,-1.7584,-1.7587,-1.759,-1.7637,0,0,-1.76,-1.7601,0,0,0,0,0,0,0,0,-1.7448,-1.7454,-1.7504,-1.7504,-1.7505,-1.7538,-1.7534,-1.758,-1.754,-1.7527,-1.7537,-1.7536,-1.7571,-1.7575,-1.7586,-1.7639,-1.7641,-1.76,-1.7602,-1.7603,-1.7604,0,0,0,0,0,0,0,-1.7445,-1.7452,-1.7522,-1.7504,-1.7505,-1.7503,-1.7508,-1.7543,-1.7556,-1.7528,-1.7527,-1.7533,-1.7571,-1.7583,-1.7587,-1.7642,-1.76,-1.7603,-1.7605,-1.7606,-1.7735,-1.7736,0,0,0,0,0,0,-1.7441,-1.7449,-1.752,-1.7523,-1.7473,-1.7506,-1.7511,-1.7529,-1.7555,-1.7558,-1.7534,-1.7532,-1.7579,-1.7584,-1.7589,-1.7645,-1.7603,-1.7606,-1.7608,-1.7733,-1.7735,-1.7737,0,0,0,0,0,0,-1.7439,-1.7448,-1.7518,-1.7486,-1.7495,-1.7509,-1.7529,-1.753,-1.7543,-1.756,-1.7562,-1.7544,-1.7578,-1.7585,-1.7625,-1.7646,-1.7608,-1.7611,-1.7731,-1.7734,-1.7736,-1.7757,0,0,0,0,0,0,-1.7436,-1.7447,-1.7464,-1.7487,-1.7497,-1.7553,-1.753,-1.7532,-1.7548,-1.7546,-1.757,-1.7573,-1.7577,-1.762,-1.7628,-1.765,-1.7613,-1.7729,-1.7732,-1.7735,-1.7754,-1.776,-1.7764,0,0,0,0,0,-1.7433,-1.7469,-1.7465,-1.7474,-1.7519,-1.7554,-1.756,-1.7564,-1.755,-1.7568,-1.7579,-1.7572,-1.7643,-1.7624,-1.7633,-1.7656,-1.7728,-1.7731,-1.7735,-1.7752,-1.7759,-1.7764,0,0,0,0,0,0,-1.7449,-1.7472,-1.7468,-1.7512,-1.7531,-1.7552,-1.7575,-1.7571,-1.7595,-1.7592,-1.7596,-1.7602,-1.7643,-1.7654,-1.7632,-1.7703,-1.7684,-1.7689,-1.7694,-1.77,-1.7705,-1.7701,-1.7616,0,0,0,0,0,-1.7457,-1.7484,-1.7502,-1.7539,-1.7549,-1.756,-1.7576,-1.7578,-1.7598,-1.7606,-1.762,-1.764,-1.7667,-1.7684,-1.771,-1.7757,-1.7761,-1.7777,-1.7782,-1.7786,-1.779,-1.7815,-1.7822,-1.7748,-1.7748,-1.7748,0,0,-1.7475,-1.7491,-1.7507,-1.7543,-1.7558,-1.7586,-1.7567,-1.7597,-1.7618,-1.7611,-1.7649,-1.766,-1.7683,-1.7726,-1.7746,-1.7737,-1.7812,-1.779,-1.7793,-1.7795,-1.782,-1.7827,-1.7833,-1.775,-1.775,-1.7749,0,0,-1.7521,-1.7536,-1.7568,-1.7584,-1.7607,-1.7614,-1.7622,-1.7644,-1.7651,-1.769,-1.7685,-1.771,-1.7756,-1.7773,-1.7787,-1.7841,-1.7835,-1.7849,-1.7874,-1.7899,-1.7905,-1.791,-1.7929,-1.7935,-1.7854,-1.7854,-1.7854,0,-1.7541,-1.7581,-1.7586,-1.7616,-1.7632,-1.7627,-1.766,-1.7675,-1.7705,-1.7716,-1.7706,-1.7764,-1.7779,-1.7826,-1.7839,-1.7851,-1.786,-1.7846,-1.7904,-1.7909,-1.7914,-1.7932,-1.7939,-1.7855,-1.7855,-1.7855,-1.7855,0,-1.7604,-1.7632,-1.7656,-1.7685,-1.7704,-1.7735,-1.7744,-1.7763,-1.7763,-1.7772,-1.7812,-1.783,-1.7859,-1.7871,-1.7871,-1.7918,-1.7911,-1.7902,-1.7883,-1.7922,-1.7939,-1.7946,-1.7857,-1.7857,-1.7856,-1.7856,0,0,-1.766,-1.7692,-1.77,-1.7713,-1.7739,-1.7761,-1.7793,-1.7821,-1.7836,-1.7858,-1.7885,-1.7924,-1.7916,-1.7933,-1.7935,-1.7957,-1.7998,-1.7945,-1.7946,-1.7954,-1.805,-1.8056,-1.8064,-1.7995,-1.7997,-1.7998,-1.8048,0,-1.7708,-1.7763,-1.7768,-1.7817,-1.7844,-1.784,-1.7867,-1.7886,-1.7896,-1.792,-1.793,-1.7958,-1.7945,-1.7955,-1.7977,-1.7988,-1.8017,-1.7985,-1.802,-1.8021,-1.8013,-1.8073,-1.8079,-1.8125,-1.8055,-1.8056,-1.8057,0,-1.7771,-1.7794,-1.7846,-1.7867,-1.7879,-1.7903,-1.793,-1.7953,-1.7975,-1.798,-1.7999,-1.7999,-1.8032,-1.8012,-1.8058,-1.8036,-1.8051,-1.8059,-1.8061,-1.8063,-1.804,-1.8075,-1.814,-1.8147,-1.8067,-1.8066,-1.8065,0,-1.7805,-1.785,-1.7886,-1.7898,-1.7925,-1.7942,-1.7954,-1.7974,-1.7991,-1.8015,-1.8026,-1.8053,-1.8068,-1.8089,-1.8097,-1.8082,-1.8142,-1.8123,-1.8147,-1.8147,-1.8159,-1.8158,-1.8226,-1.8171,-1.817,-1.817,-1.817,0,-1.7858,-1.7889,-1.7902,-1.7924,-1.796,-1.7966,-1.8001,-1.8013,-1.8031,-1.8056,-1.8055,-1.8078,-1.8088,-1.8113,-1.812,-1.8156,-1.8163,-1.8168,-1.8169,-1.8168,-1.8167,-1.8176,-1.8173,-1.8172,-1.8172,-1.8171,-1.8171,0,-1.7902,-1.7912,-1.7951,-1.7973,-1.798,-1.8005,-1.8024,-1.8046,-1.8055,-1.8087,-1.8095,-1.811,-1.8139,-1.8149,-1.8186,-1.819,-1.8232,-1.8231,-1.8225,-1.8224,-1.8248,-1.8245,-1.8323,-1.8333,-1.8273,-1.8273,-1.8274,0,-1.7934,-1.7958,-1.7983,-1.7999,-1.8012,-1.8038,-1.8055,-1.8063,-1.8081,-1.8108,-1.8126,-1.8156,-1.8179,-1.8227,-1.8241,-1.8269,-1.8268,-1.8294,-1.8272,-1.827,-1.8267,-1.8265,-1.8268,-1.8297,-1.8298,-1.8298,-1.8299,0,-1.7989,-1.7993,-1.8017,-1.8044,-1.8064,-1.8085,-1.8106,-1.812,-1.813,-1.8151,-1.8181,-1.8199,-1.8236,-1.8265,-1.8294,-1.8307,-1.8305,-1.8306,-1.8313,-1.831,-1.8305,-1.8307,-1.8234,-1.8303,-1.8303,-1.8303,-1.8302,-1.8302,-1.8027,-1.8049,-1.8069,-1.8097,-1.8113,-1.8132,-1.8154,-1.8166,-1.8191,-1.8221,-1.8225,-1.8257,-1.8279,-1.8317,-1.8331,-1.8357,-1.835,-1.836,-1.8363,-1.8365,-1.8366,-1.8302,-1.8363,-1.8362,-1.8362,-1.8362,-1.8362,0,-1.8082,-1.8095,-1.812,-1.8149,-1.8171,-1.8167,-1.819,-1.8208,-1.8236,-1.8257,-1.828,-1.8315,-1.8344,-1.8361,-1.8389,-1.8407,-1.8406,-1.8414,-1.8412,-1.8415,-1.8371,-1.8362,-1.8414,-1.8414,-1.8414,-1.8414,-1.8414,-1.8414,-1.8113,-1.8148,-1.8155,-1.8199,-1.8212,-1.8243,-1.8256,-1.8274,-1.8291,-1.8329,-1.8353,-1.8364,-1.8383,-1.8413,-1.8439,-1.8444,-1.8454,-1.8462,-1.8465,-1.8424,-1.8418,-1.8413,-1.8404,-1.8464,-1.8464,-1.8507,-1.8507,-1.8508]},{"header":{"parameterUnit":"m.s-1","parameterCategory":1,"la1":30.2991,"la2":30.254,"lo1":-89.0895,"lo2":-89.0444,"dy":0.0017,"dx":0.0017,"nx":28,"ny":28,"refTime":"2025-02-02T09:00:00:Z","depth":0,"parameterNumber":3,"parameterNumberName":"V-component_of_WINDS"},"data":[0,0,0,0,0,0,0,0,0,0,0,0,0,0,0,0,0,0,0,0,0,0,0,0,0,0,0,0,0,0,0,0,0,0,0,0,0,0,0,0,0,0,0,0,0,0,0,0,0,0,0,0,0,0,0,0,0,0,1.412,1.412,0,1.4147,1.4148,1.4148,1.4146,1.4146,1.4146,1.4145,1.4173,1.4174,1.4175,0,0,0,0,0,0,0,0,0,0,0,0,0,1.4067,1.4068,1.412,1.412,1.4121,1.4147,1.4148,1.4148,1.4147,1.4146,1.4146,1.4145,1.4172,1.4174,1.4175,0,0,0,0,0,0,0,0,0,0,0,0,0,1.4092,1.4068,1.412,1.4123,1.4124,1.4147,1.4148,1.4148,1.4147,1.4146,1.4145,1.4145,1.4172,1.4173,1.4175,1.4197,0,0,1.418,1.4181,0,0,0,0,0,0,0,0,1.409,1.4094,1.4122,1.4123,1.4124,1.4143,1.4139,1.4164,1.4147,1.4138,1.4145,1.4145,1.4163,1.4165,1.4172,1.4198,1.4199,1.418,1.4181,1.4182,1.4182,0,0,0,0,0,0,0,1.4089,1.4093,1.4131,1.4123,1.4124,1.4123,1.4126,1.4144,1.4153,1.4139,1.4139,1.4142,1.4163,1.417,1.4172,1.42,1.418,1.4182,1.4183,1.4183,1.4247,1.4248,0,0,0,0,0,0,1.4086,1.4091,1.413,1.4132,1.4105,1.4125,1.4128,1.4137,1.4153,1.4155,1.4142,1.4142,1.4168,1.4171,1.4173,1.4202,1.4182,1.4183,1.4184,1.4247,1.4247,1.4248,0,0,0,0,0,0,1.4085,1.409,1.4129,1.4111,1.4116,1.4126,1.4137,1.4138,1.4145,1.4156,1.4158,1.4148,1.4167,1.4171,1.4192,1.4202,1.4184,1.4186,1.4246,1.4247,1.4248,1.4257,0,0,0,0,0,0,1.4084,1.4089,1.4097,1.4112,1.4117,1.4146,1.4137,1.4139,1.4148,1.4147,1.4161,1.4163,1.4167,1.4189,1.4193,1.4204,1.4187,1.4245,1.4246,1.4247,1.4256,1.4258,1.426,0,0,0,0,0,1.4082,1.4098,1.4098,1.4103,1.4128,1.4147,1.415,1.4155,1.4149,1.4157,1.4165,1.4163,1.42,1.4191,1.4196,1.4208,1.4244,1.4246,1.4247,1.4255,1.4258,1.426,0,0,0,0,0,0,1.4085,1.41,1.41,1.4121,1.4133,1.4147,1.4157,1.4157,1.417,1.4169,1.4174,1.4177,1.4198,1.4205,1.4194,1.423,1.4222,1.4224,1.4225,1.4228,1.4231,1.4229,1.4188,0,0,0,0,0,1.4088,1.4102,1.4115,1.4133,1.4139,1.4147,1.4156,1.4158,1.417,1.4175,1.4184,1.4195,1.421,1.4219,1.4233,1.4256,1.426,1.4267,1.4269,1.4271,1.4273,1.4288,1.4291,1.4254,1.4253,1.4253,0,0,1.4094,1.4105,1.4113,1.4134,1.4143,1.4158,1.4151,1.4167,1.4178,1.4177,1.4198,1.4204,1.4218,1.424,1.425,1.4246,1.4285,1.4273,1.4274,1.4276,1.429,1.4294,1.4297,1.4255,1.4254,1.4254,0,0,1.4115,1.4123,1.414,1.415,1.4164,1.417,1.4174,1.4188,1.4193,1.4213,1.4213,1.4227,1.4252,1.4262,1.427,1.4296,1.4295,1.43,1.4312,1.4326,1.4329,1.4332,1.4343,1.4346,1.4302,1.4302,1.4302,0,1.4121,1.4144,1.4149,1.4165,1.4175,1.4175,1.4193,1.4201,1.4219,1.4226,1.4221,1.4254,1.4262,1.4288,1.4295,1.4301,1.4306,1.4299,1.4329,1.4331,1.4334,1.4344,1.4348,1.4303,1.4303,1.4303,1.4303,0,1.4152,1.4168,1.418,1.4198,1.4209,1.4226,1.4233,1.4244,1.4246,1.4252,1.4274,1.4285,1.4302,1.4308,1.4309,1.4334,1.4332,1.4328,1.4319,1.4338,1.4348,1.4352,1.4304,1.4304,1.4304,1.4303,0,0,1.4174,1.4196,1.42,1.421,1.4226,1.4239,1.4256,1.4273,1.4283,1.4295,1.4311,1.4332,1.4329,1.4339,1.4342,1.4354,1.4376,1.4349,1.4349,1.4354,1.4405,1.4409,1.4414,1.4375,1.4376,1.4376,1.4405,0,1.4197,1.4228,1.4234,1.4261,1.4277,1.4278,1.4293,1.4305,1.4312,1.4327,1.4334,1.435,1.4344,1.435,1.4362,1.437,1.4386,1.4368,1.439,1.4391,1.4388,1.4418,1.4422,1.4448,1.4409,1.4409,1.441,0,1.4228,1.4242,1.4272,1.4288,1.4294,1.4308,1.4325,1.4339,1.4353,1.4357,1.4369,1.4371,1.4389,1.438,1.4406,1.4394,1.4403,1.4409,1.441,1.4413,1.4402,1.4423,1.4457,1.4461,1.4415,1.4415,1.4414,0,1.4243,1.427,1.4291,1.4299,1.4318,1.4328,1.4336,1.4349,1.436,1.4375,1.4382,1.4399,1.4408,1.4421,1.4428,1.442,1.4455,1.4445,1.4459,1.4459,1.4467,1.4467,1.4504,1.4471,1.4471,1.4471,1.4471,0,1.4269,1.4287,1.4299,1.4312,1.4333,1.4339,1.436,1.4368,1.438,1.4395,1.4397,1.4411,1.4419,1.4434,1.444,1.4462,1.4466,1.447,1.4472,1.4471,1.4471,1.4478,1.4477,1.4472,1.4472,1.4472,1.4472,0,1.4289,1.4298,1.4322,1.4338,1.4342,1.4357,1.4371,1.4385,1.4392,1.4411,1.4416,1.4428,1.4446,1.4454,1.4477,1.4481,1.4507,1.4506,1.4502,1.4503,1.4518,1.4517,1.4561,1.4568,1.453,1.453,1.4531,0,1.4306,1.432,1.4338,1.4349,1.4358,1.4375,1.4386,1.4393,1.4404,1.4423,1.4434,1.4453,1.4469,1.4499,1.4509,1.4527,1.4527,1.4542,1.453,1.4529,1.4529,1.4529,1.4531,1.4544,1.4545,1.4545,1.4545,0,1.4334,1.4338,1.4354,1.4372,1.4386,1.44,1.4414,1.4423,1.4432,1.4446,1.4465,1.4477,1.4501,1.4521,1.4539,1.4548,1.4549,1.4549,1.4553,1.4553,1.4551,1.4554,1.4509,1.4548,1.4548,1.4547,1.4547,1.4547,1.4354,1.4368,1.4383,1.4402,1.4413,1.4427,1.4441,1.445,1.4467,1.4487,1.449,1.4512,1.4527,1.4552,1.4562,1.4579,1.4575,1.4582,1.4583,1.4585,1.4587,1.4548,1.4582,1.4582,1.4582,1.4582,1.4582,0,1.4384,1.4395,1.4411,1.4432,1.4447,1.4446,1.4462,1.4475,1.4494,1.4508,1.4524,1.4547,1.4566,1.4578,1.4598,1.4609,1.461,1.4614,1.4614,1.4616,1.4588,1.4583,1.4613,1.4613,1.4613,1.4613,1.4613,1.4613,1.4402,1.4425,1.4431,1.4461,1.4471,1.4492,1.4502,1.4515,1.4526,1.4552,1.4568,1.4576,1.459,1.4611,1.4629,1.4632,1.464,1.4644,1.4647,1.4621,1.4618,1.4615,1.461,1.4646,1.4646,1.4674,1.4675,1.4675]}]]